Starlink 3197

operational
NORAD ID: 49757 Int'l Des: 2021-115 Owner: SPXS Country: US Constellation: starlink
LEOCIRCULAR

Starlink 3197について

説明を読み込み中...

リアルタイム位置

3D地球を読み込み中...

次回通過

高度履歴

Altitude vs Time

uPlot chart will show altitude changes over time

軌道要素

1 49757U 21115AK 26061.59301549 -.00001636 00000-0 -84753-4 0 9992
2 49757 53.2171 170.9906 0001210 87.7781 272.3349 15.08819092234605
Epoch: Mar 2, 2026 • Age: 38 hours

現在のステータス

高度 539.9 km
速度 7.60 km/s
衛星直下点 18.51°N, 166.83°E
打ち上げ日 Dec 2, 2021
運用期間 4.2 years
タイプ internet

技術仕様

分類 Payload
質量 290.00 kg
乾燥質量 270.00 kg
総質量 290.00 kg
長さ 0.20 m
直径 2.80 m
スパン 9.00 m
形状 Box + pan
製造者 SPXS
バスタイプ Starlink
フェーズステータス In Orbit
所有者/国 SPXS/US

大規模コンステレーション

Loading constellations...